This demonstration page uses our WeatherBlox Daily Observations layout. Learn more.

Left ArrowRight Arrow

Hourly Observations for March 22, 2019

Temp ( °F °C ) Dew Point ( °F °C ) Humidity (%) Winds ( mph kmh ) Pressure ( in mb ) Visibility ( mi km ) Precip ( " mm )
12:51 am 00:51 Clear 48 8.9 27 -2.8 44 44 NNW 6 9 29.94 1014 10 16 N/A
1:51 am 01:51 Partly Cloudy 48 8.9 27 -2.8 44 44 WNW 6 9 29.93 1014 10 16 N/A
2:51 am 02:51 Partly Cloudy 49 9.4 27 -2.8 43 43 WNW 12 19 29.93 1013 10 16 N/A
3:51 am 03:51 Partly Cloudy 47 8.3 28 -2.2 48 48 WNW 8 13 29.92 1013 10 16 N/A
4:51 am 04:51 Clear 42 5.6 30 -1.1 62 62 NW 6 9 29.95 1014 10 16 N/A
5:51 am 05:51 Clear 45 7.2 29 -1.7 54 54 W 7 11 29.97 1015 10 16 N/A
6:51 am 06:51 Sunny 44 6.7 31 -0.6 60 60 SSE 3 6 30.01 1016 10 16 N/A
7:51 am 07:51 Sunny 51 10.6 31 -0.6 46 46 WNW 5 7 30.01 1016 10 16 N/A
8:51 am 08:51 Sunny 56 13.3 29 -1.7 36 36 WNW 12 19 30.01 1016 10 16 N/A
9:51 am 09:51 Sunny 59 15 29 -1.7 32 32 WNW 9 15 30.00 1016 10 16 N/A
10:51 am 10:51 Sunny 63 17.2 26 -3.3 25 25 WNW 12 19 30.00 1016 10 16 N/A
11:51 am 11:51 Sunny 65 18.3 22 -5.6 19 19 WNW 17 28 29.98 1015 10 16 N/A
12:51 pm 12:51 Sunny 67 19.4 21 -6.1 17 17 WNW 13 20 29.96 1014 10 16 N/A
1:51 pm 13:51 Sunny 68 20 22 -5.6 17 17 NW 14 22 29.93 1014 10 16 N/A
2:51 pm 14:51 Sunny 68 20 22 -5.6 17 17 NW 13 20 29.91 1013 10 16 N/A
3:51 pm 15:51 Sunny 68 20 23 -5 18 18 NNW 15 24 29.91 1013 10 16 N/A
4:51 pm 16:51 Sunny 67 19.4 21 -6.1 17 17 NW 17 28 29.93 1013 10 16 N/A
5:51 pm 17:51 Sunny 65 18.3 25 -3.9 22 22 NW 21 33 29.94 1014 10 16 N/A
6:51 pm 18:51 Clear 61 16.1 26 -3.3 26 26 WNW 13 20 29.97 1015 10 16 N/A
7:51 pm 19:51 Clear 56 13.3 27 -2.8 33 33 NW 10 17 29.98 1015 10 16 N/A
8:51 pm 20:51 Clear 55 12.8 27 -2.8 34 34 NNW 13 20 30.00 1016 10 16 N/A
9:51 pm 21:51 Clear 55 12.8 27 -2.8 34 34 N 9 15 30.01 1016 10 16 N/A
10:51 pm 22:51 Clear 50 10 29 -1.7 44 44 WNW 8 13 30.02 1017 10 16 N/A
11:51 pm 23:51 Clear 48 8.9 30 -1.1 50 50 W 10 17 30.01 1016 10 16 N/A

Powered by AerisWeather